ベルナルディ彗星

P/2005 V1 ( Bernardi )

English version
Home page
Updated on July 7, 2007

---------------------------------------------------------------------

・ プロフィール

発見日 2005年11月1日
発見光度 20.5等
発見者 Fabrizio Bernardi (University of Hawaii Asteroid Search project)

・ 軌道要素

T 2005 Aug. 12.6043 TT                                  MPC
q   2.345203             (2000.0)            P               Q
n   0.1033210      Peri.  357.3300      -0.6040989      -0.7695365
a   4.497905       Node   129.7390      +0.7360492      -0.6383920
e   0.478601       Incl.   15.6217      +0.3054440      +0.0164084
P   9.54
>From 31 observations 2005 Nov. 1-Dec. 29.

・ 光度変化

        m1 = 14.0 + 5 logΔ + 10.0 log r

---------------------------------------------------------------------

軌道要素はM.P.E.C. 2006-B15に掲載されたものです。
光度グラフはComet for Windowsで作成したものです。

---------------------------------------------------------------------

Copyright(C) Seiichi Yoshida (comet@aerith.net). All rights reserved.